Location: Baumgartsau
(48.4586°N, 14.0864°E)
Time: 22:43:49
(UTC+00:00)

BREEZE M DEB (TANK) - Pass Details

Date: 09 April 2020
Orbit: 303 x 11878 km, 49.5° (Epoch: 02 June)

Event Time Altitude Azimuth Distance (km) Brightness Sun altitude
Rises 19:16:39 0° 220° (SW) 2,279 5.6 -14.7°
Reaches altitude 10° 19:18:05 10° 211° (SSW) 1,651 4.8 -14.9°
Maximum altitude 19:21:15 43° 137° (SE) 1,072 3.3 -15.3°
Drops below altitude 10° 19:29:34 10° 70° (ENE) 4,345 6.5 -16.5°
Sets 19:36:02 0° 66° (ENE) 6,955 7.6 -17.3°
